User: anonymous   Login
Location: Burgerwiesen
(48.6500°N, 15.6167°E)
Time: 12:12:30
(UTC+00:00)
Language:

STARLINK-1270 - Orbit

View from above orbital plane
View from above orbital plane
View from above satellite
View from above satellite

Ground track
Ground track

The orbit data is extracted from the following two-line orbital elements,

1 45237U 20012BM  20190.91667824 -.00032421  00000-0 -22152-2 0  9999
2 45237  53.0004 298.1786 0001196  87.4186 146.2632 15.05595537 22505
Epoch (UTC): 08 July 2020 22:00:01
Eccentricity: 0.0001196
inclination: 53.0004°
perigee height: 549 km
apogee height: 550 km
right ascension of ascending node: 298.1786°
argument of perigee: 87.4186°
revolutions per day: 15.05595537
mean anomaly at epoch: 146.2632°
orbit number at epoch: 2250

The dashed part of the orbit path shows where the satellite is in the earth's shadow,  

DLR